Weather History for Goodland, KS

Change the Weather History Date:

Sunday, March 17, 2013

  Actual Average Record
Temperature  
Mean Temperature 40 °F 41 °F  
Max Temperature 55 °F 55 °F 85 °F (2012)
Min Temperature 24 °F 27 °F -1 °F (1896)
Degree Days  
Heating Degree Days 25 24  
Month to date heating degree days 420 448  
Since 1 July heating degree days 4707 4865  
Cooling Degree Days 0 0  
Month to date cooling degree days 0 0  
Year to date cooling degree days 0 0  
Moisture  
Dew Point 26 °F    
Average Humidity 63    
Maximum Humidity 88    
Minimum Humidity 38    
Precipitation  
Precipitation 0.01 in 0.04 in 0.47 in (1924)
Month to date precipitation 0.22 0.52  
Year to date precipitation 1.07 1.39  
Snow  
Snow 0.00 in 0.20 in - ()
Month to date snowfall 4.7 3.4  
Since 1 July snowfall 27.9 27.4  
Snow Depth 0.00 in    
Sea Level Pressure  
Sea Level Pressure 29.78 in    
Wind  
Wind Speed 18 mph (SSE)    
Max Wind Speed 35 mph    
Max Gust Speed 41 mph    
Visibility 10 miles    
Events Rain    
T = Trace of Precipitation, MM = Missing Value Source: NWS Daily Summary

Daily Weather History Graph

Daily Weather History Graph

Search for Another Location

Airport:

Trip Planner

Search our weather history database for the weather conditions in past years. The results will help you decide how hot, cold, wet, or windy it might be!

Date:

Astronomy

Mar. 17, 2013 Rise Set
Actual Time 6:54 AM MDT 6:56 PM MDT
Civil Twilight 6:27 AM MDT 7:22 PM MDT
Nautical Twilight 5:56 AM MDT 7:54 PM MDT
Astronomical Twilight 5:24 AM MDT 8:25 PM MDT
Moon 10:10 AM MDT (3/17) 12:04 AM MDT (3/17)
Length of Visible Light 12h 55m
Length of Day
12h 01m
Waxing Crescent, 32% of the Moon is Illuminated
Mar 17
Waxing Crescent
Mar 19
First Quarter
Mar 27
Full
Apr 2
Last Quarter
Apr 10
New

Hourly Weather History & Observations

Time (MDT) Temp. Windchill Dew Point Humidity Pressure Visibility Wind Dir Wind Speed Gust Speed Precip Events Conditions
12:53 AM 28.9 °F 21.9 °F 21.9 °F 75% 29.96 in 10.0 mi SSE 6.9 mph - N/A   Clear
1:35 AM 28.4 °F 19.1 °F 21.2 °F 74% 29.92 in 10.0 mi SSE 10.4 mph - N/A   Mostly Cloudy
1:44 AM 26.6 °F 16.8 °F 21.2 °F 80% 29.92 in 10.0 mi SSE 10.4 mph - N/A   Scattered Clouds
1:53 AM 28.0 °F 19.3 °F 21.9 °F 78% 29.96 in 10.0 mi SSE 9.2 mph - N/A   Scattered Clouds
2:53 AM 26.1 °F 15.6 °F 21.9 °F 84% 29.94 in 10.0 mi SSE 11.5 mph - N/A   Clear
3:53 AM 26.6 °F 18.2 °F 21.2 °F 80% 29.88 in 10.0 mi SSE 8.1 mph - N/A   Clear
4:53 AM 25.0 °F 13.6 °F 21.9 °F 88% 29.90 in 10.0 mi SSE 12.7 mph - N/A   Clear
5:53 AM 25.0 °F 13.6 °F 21.9 °F 88% 29.90 in 10.0 mi SSE 12.7 mph - N/A   Mostly Cloudy
6:53 AM 27.0 °F 16.1 °F 23.0 °F 85% 29.90 in 10.0 mi South 12.7 mph - N/A   Overcast
7:06 AM 26.6 °F 15.2 °F 23.0 °F 86% 29.85 in 10.0 mi South 13.8 mph - N/A   Overcast
7:22 AM 26.6 °F 17.5 °F 23.0 °F 86% 29.84 in 10.0 mi South 9.2 mph - N/A   Scattered Clouds
7:53 AM 27.0 °F 15.2 °F 23.0 °F 85% 29.89 in 10.0 mi South 15.0 mph - N/A   Scattered Clouds
8:53 AM 32.0 °F 19.2 °F 25.0 °F 75% 29.85 in 10.0 mi South 23.0 mph - N/A   Clear
9:53 AM 37.9 °F 25.7 °F 26.1 °F 62% 29.80 in 10.0 mi South 29.9 mph 38.0 mph N/A   Clear
10:53 AM 43.0 °F 32.4 °F 25.0 °F 49% 29.77 in 10.0 mi South 31.1 mph 39.1 mph N/A   Clear
11:53 AM 48.9 °F - 25.0 °F 39% 29.73 in 10.0 mi South 29.9 mph 38.0 mph N/A   Clear
12:53 PM 51.1 °F - 26.1 °F 38% 29.68 in 10.0 mi South 31.1 mph 41.4 mph N/A   Clear
1:53 PM 52.0 °F - 28.0 °F 40% 29.63 in 10.0 mi South 25.3 mph 36.8 mph N/A   Clear
2:53 PM 51.1 °F - 30.0 °F 44% 29.60 in 10.0 mi South 26.5 mph 34.5 mph N/A   Mostly Cloudy
3:53 PM 55.0 °F - 30.9 °F 40% 29.55 in 10.0 mi South 24.2 mph 33.4 mph N/A   Partly Cloudy
4:53 PM 54.0 °F - 32.0 °F 43% 29.55 in 10.0 mi South 24.2 mph 32.2 mph N/A   Clear
5:53 PM 51.1 °F - 32.0 °F 48% 29.56 in 10.0 mi South 21.9 mph - N/A   Partly Cloudy
6:53 PM 46.9 °F - 32.0 °F 56% 29.62 in 10.0 mi ESE 8.1 mph - N/A   Scattered Clouds
7:53 PM 41.0 °F 36.4 °F 32.0 °F 70% 29.68 in 10.0 mi SE 6.9 mph - N/A   Scattered Clouds
8:53 PM 35.1 °F 31.0 °F 28.9 °F 78% 29.70 in 10.0 mi SE 4.6 mph - N/A   Clear
9:53 PM 41.0 °F 34.3 °F 37.0 °F 86% 29.76 in 9.0 mi North 11.5 mph 26.5 mph 0.01 in Rain Light Rain
10:53 PM 41.0 °F 31.6 °F 30.0 °F 65% 29.79 in 10.0 mi NNW 20.7 mph 26.5 mph 0.00 in   Overcast
11:53 PM 37.0 °F 25.6 °F 26.1 °F 65% 29.84 in 10.0 mi North 24.2 mph 32.2 mph N/A   Overcast